Location: Bucquoy
(50.1391°N, 2.7097°E)
Time: 02:18:43
(UTC+00:00)

Cosmos 44 Rocket - Pass Details

Date: 06 May 2021
Orbit: 636 x 753 km, 65.1° (Epoch: 24 June)

Event Time Altitude Azimuth Distance (km) Brightness Sun altitude
Rises 01:56:15 0° 318° (NW) 3,215 6.9 -17.4°
Reaches altitude 10° 01:58:41 10° 316° (NW) 2,285 6.1 -17.2°
Maximum altitude 02:03:52 66° 236° (SW) 818 3.4 -16.7°
Drops below altitude 10° 02:08:57 10° 155° (SSE) 2,234 5.6 -16.2°
Sets 02:11:18 0° 152° (SSE) 3,138 6.4 -16.0°
